Location: Le Vaud
(46.4779°N, 6.2346°E)
Time: 17:42:32
(UTC+00:00)

Cosmos 1725 Rocket - Pass Details

Date: 18 February 2020
Orbit: 963 x 989 km, 82.9° (Epoch: 31 March)

Event Time Altitude Azimuth Distance (km) Brightness Sun altitude
Rises 05:44:00 0° 349° (N) 3,681 6.8 -9.4°
Reaches altitude 10° 05:46:31 10° 347° (NNW) 2,733 6.2 -9.0°
Maximum altitude 05:52:44 71° 265° (W) 1,034 4.0 -7.9°
Drops below altitude 10° 05:58:58 10° 183° (S) 2,733 6.5 -6.8°
Sets 06:01:29 0° 181° (S) 3,680 7.1 -6.4°
